Year,Month,Day,Hour,Minute,Value (Times are PST for temperature in C)
2009,07,26,00,00,22.90
2009,07,26,00,01,22.90
2009,07,26,00,02,22.90
2009,07,26,00,03,22.90
2009,07,26,00,04,22.90
2009,07,26,00,05,22.90
2009,07,26,00,06,22.90
2009,07,26,00,07,22.90
2009,07,26,00,08,22.90
2009,07,26,00,09,22.90
2009,07,26,00,10,22.90
2009,07,26,00,11,22.90
2009,07,26,00,12,22.90
2009,07,26,00,13,22.90
2009,07,26,00,14,22.90
2009,07,26,00,15,22.80
2009,07,26,00,16,22.80
2009,07,26,00,17,22.80
2009,07,26,00,18,22.70
2009,07,26,00,19,22.70
2009,07,26,00,20,22.70
2009,07,26,00,21,22.70
2009,07,26,00,22,22.70
2009,07,26,00,23,22.60
2009,07,26,00,24,22.60
2009,07,26,00,25,22.60
2009,07,26,00,26,22.70
2009,07,26,00,27,22.70
2009,07,26,00,28,22.70
2009,07,26,00,29,22.70
2009,07,26,00,30,22.70
2009,07,26,00,31,22.60
2009,07,26,00,32,22.60
2009,07,26,00,33,22.60
2009,07,26,00,34,22.60
2009,07,26,00,35,22.60
2009,07,26,00,36,22.60
2009,07,26,00,37,22.60
2009,07,26,00,38,22.60
2009,07,26,00,39,22.60
2009,07,26,00,40,22.60
2009,07,26,00,41,22.70
2009,07,26,00,42,22.70
2009,07,26,00,43,22.70
2009,07,26,00,44,22.70
2009,07,26,00,45,22.70
2009,07,26,00,46,22.70
2009,07,26,00,47,22.60
2009,07,26,00,48,22.60
2009,07,26,00,49,22.50
2009,07,26,00,50,22.50
2009,07,26,00,51,22.40
2009,07,26,00,52,22.30
2009,07,26,00,53,22.20
2009,07,26,00,54,22.00
2009,07,26,00,55,21.80
2009,07,26,00,56,21.60
2009,07,26,00,57,21.50
2009,07,26,00,58,21.40
2009,07,26,00,59,21.20
2009,07,26,01,00,21.10
2009,07,26,01,01,21.00
2009,07,26,01,02,20.90
2009,07,26,01,03,20.80
2009,07,26,01,04,20.70
2009,07,26,01,05,20.70
2009,07,26,01,06,20.60
2009,07,26,01,07,20.50
2009,07,26,01,08,20.40
2009,07,26,01,09,20.40
2009,07,26,01,10,20.30
2009,07,26,01,11,20.30
2009,07,26,01,12,20.20
2009,07,26,01,13,20.20
2009,07,26,01,14,20.20
2009,07,26,01,15,20.10
2009,07,26,01,16,20.10
2009,07,26,01,17,20.00
2009,07,26,01,18,19.90
2009,07,26,01,19,19.90
2009,07,26,01,20,19.90
2009,07,26,01,21,19.90
2009,07,26,01,22,19.90
2009,07,26,01,23,19.90
2009,07,26,01,24,19.90
2009,07,26,01,25,19.80
2009,07,26,01,26,19.80
2009,07,26,01,27,19.80
2009,07,26,01,28,19.80
2009,07,26,01,29,19.80
2009,07,26,01,30,19.80
2009,07,26,01,31,19.80
2009,07,26,01,32,19.80
2009,07,26,01,33,19.80
2009,07,26,01,34,19.80
2009,07,26,01,35,19.80
2009,07,26,01,36,19.70
2009,07,26,01,37,19.70
2009,07,26,01,38,19.70
2009,07,26,01,39,19.70
2009,07,26,01,40,19.70
2009,07,26,01,41,19.60
2009,07,26,01,42,19.60
2009,07,26,01,43,19.60
2009,07,26,01,44,19.60
2009,07,26,01,45,19.60
2009,07,26,01,46,19.70
2009,07,26,01,47,19.70
2009,07,26,01,48,19.80
2009,07,26,01,49,19.80
2009,07,26,01,50,19.90
2009,07,26,01,51,19.90
2009,07,26,01,52,19.90
2009,07,26,01,53,19.90
2009,07,26,01,54,19.90
2009,07,26,01,55,19.90
2009,07,26,01,56,19.90
2009,07,26,01,57,19.90
2009,07,26,01,58,20.00
2009,07,26,01,59,20.10
2009,07,26,02,00,20.10
2009,07,26,02,01,20.10
2009,07,26,02,02,20.10
2009,07,26,02,03,20.20
2009,07,26,02,04,20.20
2009,07,26,02,05,20.20
2009,07,26,02,06,20.20
2009,07,26,02,07,20.20
2009,07,26,02,08,20.20
2009,07,26,02,09,20.20
2009,07,26,02,10,20.20
2009,07,26,02,11,20.20
2009,07,26,02,12,20.20
2009,07,26,02,13,20.30
2009,07,26,02,14,20.30
2009,07,26,02,15,20.30
2009,07,26,02,16,20.30
2009,07,26,02,17,20.30
2009,07,26,02,18,20.30
2009,07,26,02,19,20.40
2009,07,26,02,20,20.40
2009,07,26,02,21,20.40
2009,07,26,02,22,20.40
2009,07,26,02,23,20.50
2009,07,26,02,24,20.50
2009,07,26,02,25,20.50
2009,07,26,02,26,20.50
2009,07,26,02,27,20.50
2009,07,26,02,28,20.50
2009,07,26,02,29,20.50
2009,07,26,02,30,20.40
2009,07,26,02,31,20.40
2009,07,26,02,32,20.40
2009,07,26,02,33,20.40
2009,07,26,02,34,20.40
2009,07,26,02,35,20.40
2009,07,26,02,36,20.40
2009,07,26,02,37,20.40
2009,07,26,02,38,20.40
2009,07,26,02,39,20.40
2009,07,26,02,40,20.40
2009,07,26,02,41,20.40
2009,07,26,02,42,20.40
2009,07,26,02,43,20.40
2009,07,26,02,44,20.30
2009,07,26,02,45,20.30
2009,07,26,02,46,20.30
2009,07,26,02,47,20.30
2009,07,26,02,48,20.20
2009,07,26,02,49,20.30
2009,07,26,02,50,20.30
2009,07,26,02,51,20.30
2009,07,26,02,52,20.30
2009,07,26,02,53,20.30
2009,07,26,02,54,20.30
2009,07,26,02,55,20.30
2009,07,26,02,56,20.30
2009,07,26,02,57,20.30
2009,07,26,02,58,20.30
2009,07,26,02,59,20.30
2009,07,26,03,00,20.40
2009,07,26,03,01,20.40
2009,07,26,03,02,20.40
2009,07,26,03,03,20.40
2009,07,26,03,04,20.40
2009,07,26,03,05,20.40
2009,07,26,03,06,20.40
2009,07,26,03,07,20.40
2009,07,26,03,08,20.40
2009,07,26,03,09,20.40
2009,07,26,03,10,20.40
2009,07,26,03,11,20.30
2009,07,26,03,12,20.40
2009,07,26,03,13,20.40
2009,07,26,03,14,20.40
2009,07,26,03,15,20.40
2009,07,26,03,16,20.40
2009,07,26,03,17,20.40
2009,07,26,03,18,20.40
2009,07,26,03,19,20.50
2009,07,26,03,20,20.50
2009,07,26,03,21,20.60
2009,07,26,03,22,20.70
2009,07,26,03,23,20.70
2009,07,26,03,24,20.80
2009,07,26,03,25,20.90
2009,07,26,03,26,20.90
2009,07,26,03,27,20.90
2009,07,26,03,28,21.00
2009,07,26,03,29,21.00
2009,07,26,03,30,21.00
2009,07,26,03,31,21.00
2009,07,26,03,32,21.00
2009,07,26,03,33,21.00
2009,07,26,03,34,20.90
2009,07,26,03,35,20.90
2009,07,26,03,36,20.90
2009,07,26,03,37,20.90
2009,07,26,03,38,20.80
2009,07,26,03,39,20.80
2009,07,26,03,40,20.80
2009,07,26,03,41,20.80
2009,07,26,03,42,20.80
2009,07,26,03,43,20.80
2009,07,26,03,44,20.80
2009,07,26,03,45,20.80
2009,07,26,03,46,20.80
2009,07,26,03,47,20.80
2009,07,26,03,48,20.80
2009,07,26,03,49,20.80
2009,07,26,03,50,20.80
2009,07,26,03,51,20.70
2009,07,26,03,52,20.70
2009,07,26,03,53,20.70
2009,07,26,03,54,20.70
2009,07,26,03,55,20.70
2009,07,26,03,56,20.70
2009,07,26,03,57,20.60
2009,07,26,03,58,20.60
2009,07,26,03,59,20.60
2009,07,26,04,00,20.60
2009,07,26,04,01,20.50
2009,07,26,04,02,20.50
2009,07,26,04,03,20.50
2009,07,26,04,04,20.50
2009,07,26,04,05,20.40
2009,07,26,04,06,20.40
2009,07,26,04,07,20.40
2009,07,26,04,08,20.40
2009,07,26,04,09,20.30
2009,07,26,04,10,20.30
2009,07,26,04,11,20.30
2009,07,26,04,12,20.30
2009,07,26,04,13,20.30
2009,07,26,04,14,20.30
2009,07,26,04,15,20.30
2009,07,26,04,16,20.30
2009,07,26,04,17,20.30
2009,07,26,04,18,20.30
2009,07,26,04,19,20.30
2009,07,26,04,20,20.40
2009,07,26,04,21,20.40
2009,07,26,04,22,20.40
2009,07,26,04,23,20.50
2009,07,26,04,24,20.50
2009,07,26,04,25,20.50
2009,07,26,04,26,20.60
2009,07,26,04,27,20.60
2009,07,26,04,28,20.60
2009,07,26,04,29,20.60
2009,07,26,04,30,20.60
2009,07,26,04,31,20.60
2009,07,26,04,32,20.60
2009,07,26,04,33,20.60
2009,07,26,04,34,20.50
2009,07,26,04,35,20.60
2009,07,26,04,36,20.60
2009,07,26,04,37,20.60
2009,07,26,04,38,20.60
2009,07,26,04,39,20.60
2009,07,26,04,40,20.60
2009,07,26,04,41,20.60
2009,07,26,04,42,20.60
2009,07,26,04,43,20.60
2009,07,26,04,44,20.60
2009,07,26,04,45,20.60
2009,07,26,04,46,20.60
2009,07,26,04,47,20.50
2009,07,26,04,48,20.50
2009,07,26,04,49,20.40
2009,07,26,04,50,20.30
2009,07,26,04,51,20.20
2009,07,26,04,52,20.20
2009,07,26,04,53,20.20
2009,07,26,04,54,20.20
2009,07,26,04,55,20.20
2009,07,26,04,56,20.20
2009,07,26,04,57,20.20
2009,07,26,04,58,20.10
2009,07,26,04,59,20.10
2009,07,26,05,00,20.10
2009,07,26,05,01,20.00
2009,07,26,05,02,19.90
2009,07,26,05,03,19.90
2009,07,26,05,04,19.90
2009,07,26,05,05,19.90
2009,07,26,05,06,19.90
2009,07,26,05,07,19.80
2009,07,26,05,08,19.80
2009,07,26,05,09,19.70
2009,07,26,05,10,19.70
2009,07,26,05,11,19.70
2009,07,26,05,12,19.60
2009,07,26,05,13,19.60
2009,07,26,05,14,19.60
2009,07,26,05,15,19.60
2009,07,26,05,16,19.60
2009,07,26,05,17,19.60
2009,07,26,05,18,19.60
2009,07,26,05,19,19.60
2009,07,26,05,20,19.60
2009,07,26,05,21,19.60
2009,07,26,05,22,19.60
2009,07,26,05,23,19.60
2009,07,26,05,24,19.60
2009,07,26,05,25,19.60
2009,07,26,05,26,19.60
2009,07,26,05,27,19.60
2009,07,26,05,28,19.60
2009,07,26,05,29,19.60
2009,07,26,05,30,19.60
2009,07,26,05,31,19.60
2009,07,26,05,32,19.60
2009,07,26,05,33,19.60
2009,07,26,05,34,19.60
2009,07,26,05,35,19.60
2009,07,26,05,36,19.60
2009,07,26,05,37,19.60
2009,07,26,05,38,19.60
2009,07,26,05,39,19.60
2009,07,26,05,40,19.60
2009,07,26,05,41,19.60
2009,07,26,05,42,19.60
2009,07,26,05,43,19.60
2009,07,26,05,44,19.50
2009,07,26,05,45,19.50
2009,07,26,05,46,19.50
2009,07,26,05,47,19.60
2009,07,26,05,48,19.60
2009,07,26,05,49,19.60
2009,07,26,05,50,19.60
2009,07,26,05,51,19.60
2009,07,26,05,52,19.60
2009,07,26,05,53,19.60
2009,07,26,05,54,19.60
2009,07,26,05,55,19.60
2009,07,26,05,56,19.60
2009,07,26,05,57,19.60
2009,07,26,05,58,19.60
2009,07,26,05,59,19.60
2009,07,26,06,00,19.60
2009,07,26,06,01,19.60
2009,07,26,06,02,19.60
2009,07,26,06,03,19.60
2009,07,26,06,04,19.60
2009,07,26,06,05,19.60
2009,07,26,06,06,19.50
2009,07,26,06,07,19.50
2009,07,26,06,08,19.50
2009,07,26,06,09,19.50
2009,07,26,06,10,19.50
2009,07,26,06,11,19.50
2009,07,26,06,12,19.50
2009,07,26,06,13,19.40
2009,07,26,06,14,19.40
2009,07,26,06,15,19.40
2009,07,26,06,16,19.40
2009,07,26,06,17,19.40
2009,07,26,06,18,19.40
2009,07,26,06,19,19.40
2009,07,26,06,20,19.40
2009,07,26,06,21,19.40
2009,07,26,06,22,19.40
2009,07,26,06,23,19.40
2009,07,26,06,24,19.40
2009,07,26,06,25,19.40
2009,07,26,06,26,19.40
2009,07,26,06,27,19.40
2009,07,26,06,28,19.40
2009,07,26,06,29,19.40
2009,07,26,06,30,19.40
2009,07,26,06,31,19.40
2009,07,26,06,32,19.50
2009,07,26,06,33,19.50
2009,07,26,06,34,19.50
2009,07,26,06,35,19.50
2009,07,26,06,36,19.50
2009,07,26,06,37,19.50
2009,07,26,06,38,19.50
2009,07,26,06,39,19.50
2009,07,26,06,40,19.60
2009,07,26,06,41,19.60
2009,07,26,06,42,19.50
2009,07,26,06,43,19.50
2009,07,26,06,44,19.60
2009,07,26,06,45,19.60
2009,07,26,06,46,19.60
2009,07,26,06,47,19.60
2009,07,26,06,48,19.60
2009,07,26,06,49,19.60
2009,07,26,06,50,19.60
2009,07,26,06,51,19.70
2009,07,26,06,52,19.70
2009,07,26,06,53,19.70
2009,07,26,06,54,19.80
2009,07,26,06,55,19.80
2009,07,26,06,56,19.80
2009,07,26,06,57,19.80
2009,07,26,06,58,19.90
2009,07,26,06,59,19.90
2009,07,26,07,00,19.90
2009,07,26,07,01,19.90
2009,07,26,07,02,19.90
2009,07,26,07,03,19.90
2009,07,26,07,04,19.90
2009,07,26,07,05,19.90
2009,07,26,07,06,20.10
2009,07,26,07,07,20.10
2009,07,26,07,08,20.10
2009,07,26,07,09,20.10
2009,07,26,07,10,20.20
2009,07,26,07,11,20.20
2009,07,26,07,12,20.20
2009,07,26,07,13,20.20
2009,07,26,07,14,20.20
2009,07,26,07,15,20.20
2009,07,26,07,16,20.20
2009,07,26,07,17,20.20
2009,07,26,07,18,20.20
2009,07,26,07,19,20.20
2009,07,26,07,20,20.30
2009,07,26,07,21,20.30
2009,07,26,07,22,20.30
2009,07,26,07,23,20.30
2009,07,26,07,24,20.40
2009,07,26,07,25,20.40
2009,07,26,07,26,20.40
2009,07,26,07,27,20.50
2009,07,26,07,28,20.50
2009,07,26,07,29,20.50
2009,07,26,07,30,20.50
2009,07,26,07,31,20.50
2009,07,26,07,32,20.50
2009,07,26,07,33,20.40
2009,07,26,07,34,20.40
2009,07,26,07,35,20.40
2009,07,26,07,36,20.50
2009,07,26,07,37,20.50
2009,07,26,07,38,20.50
2009,07,26,07,39,20.60
2009,07,26,07,40,20.60
2009,07,26,07,41,20.60
2009,07,26,07,42,20.60
2009,07,26,07,43,20.60
2009,07,26,07,44,20.60
2009,07,26,07,45,20.60
2009,07,26,07,46,20.60
2009,07,26,07,47,20.60
2009,07,26,07,48,20.60
2009,07,26,07,49,20.60
2009,07,26,07,50,20.60
2009,07,26,07,51,20.60
2009,07,26,07,52,20.60
2009,07,26,07,53,20.70
2009,07,26,07,54,20.70
2009,07,26,07,55,20.80
2009,07,26,07,56,20.80
2009,07,26,07,57,20.80
2009,07,26,07,58,20.90
2009,07,26,07,59,20.90
2009,07,26,08,00,20.90
2009,07,26,08,01,21.00
2009,07,26,08,02,21.00
2009,07,26,08,03,21.00
2009,07,26,08,04,21.00
2009,07,26,08,05,21.00
2009,07,26,08,06,21.10
2009,07,26,08,07,21.10
2009,07,26,08,08,21.10
2009,07,26,08,09,21.00
2009,07,26,08,10,21.00
2009,07,26,08,11,21.00
2009,07,26,08,12,21.00
2009,07,26,08,13,21.00
2009,07,26,08,14,21.00
2009,07,26,08,15,20.90
2009,07,26,08,16,20.90
2009,07,26,08,17,21.00
2009,07,26,08,18,21.00
2009,07,26,08,19,21.00
2009,07,26,08,20,21.10
2009,07,26,08,21,21.10
2009,07,26,08,22,21.00
2009,07,26,08,23,21.00
2009,07,26,08,24,21.00
2009,07,26,08,25,21.00
2009,07,26,08,26,21.10
2009,07,26,08,27,21.10
2009,07,26,08,28,21.20
2009,07,26,08,29,21.20
2009,07,26,08,30,21.30
2009,07,26,08,31,21.20
2009,07,26,08,32,21.10
2009,07,26,08,33,21.10
2009,07,26,08,34,21.10
2009,07,26,08,35,21.10
2009,07,26,08,36,21.10
2009,07,26,08,37,21.10
2009,07,26,08,38,21.00
2009,07,26,08,39,21.00
2009,07,26,08,40,21.10
2009,07,26,08,41,21.10
2009,07,26,08,42,21.00
2009,07,26,08,43,21.00
2009,07,26,08,44,21.00
2009,07,26,08,45,21.00
2009,07,26,08,46,21.00
2009,07,26,08,47,21.10
2009,07,26,08,48,21.10
2009,07,26,08,49,21.10
2009,07,26,08,50,21.10
2009,07,26,08,51,21.10
2009,07,26,08,52,21.10
2009,07,26,08,53,21.20
2009,07,26,08,54,21.20
2009,07,26,08,55,21.30
2009,07,26,08,56,21.30
2009,07,26,08,57,21.30
2009,07,26,08,58,21.40
2009,07,26,08,59,21.50
2009,07,26,09,00,21.60
2009,07,26,09,01,21.60
2009,07,26,09,02,21.60
2009,07,26,09,03,21.60
2009,07,26,09,04,21.60
2009,07,26,09,05,21.60
2009,07,26,09,06,21.60
2009,07,26,09,07,21.60
2009,07,26,09,08,21.60
2009,07,26,09,09,21.70
2009,07,26,09,10,21.70
2009,07,26,09,11,21.70
2009,07,26,09,12,21.70
2009,07,26,09,13,21.80
2009,07,26,09,14,21.80
2009,07,26,09,15,21.80
2009,07,26,09,16,21.90
2009,07,26,09,17,21.90
2009,07,26,09,18,21.90
2009,07,26,09,19,22.00
2009,07,26,09,20,22.00
2009,07,26,09,21,22.00
2009,07,26,09,22,22.10
2009,07,26,09,23,22.10
2009,07,26,09,24,22.20
2009,07,26,09,25,22.20
2009,07,26,09,26,22.20
2009,07,26,09,27,22.30
2009,07,26,09,28,22.30
2009,07,26,09,29,22.20
2009,07,26,09,30,22.20
2009,07,26,09,31,22.20
2009,07,26,09,32,22.20
2009,07,26,09,33,22.20
2009,07,26,09,34,22.20
2009,07,26,09,35,22.20
2009,07,26,09,36,22.10
2009,07,26,09,37,22.10
2009,07,26,09,38,22.10
2009,07,26,09,39,22.10
2009,07,26,09,40,22.10
2009,07,26,09,41,22.20
2009,07,26,09,42,22.20
2009,07,26,09,43,22.10
2009,07,26,09,44,22.10
2009,07,26,09,45,22.10
2009,07,26,09,46,22.10
2009,07,26,09,47,22.10
2009,07,26,09,48,22.10
2009,07,26,09,49,22.10
2009,07,26,09,50,22.10
2009,07,26,09,51,22.10
2009,07,26,09,52,22.20
2009,07,26,09,53,22.30
2009,07,26,09,54,22.30
2009,07,26,09,55,22.40
2009,07,26,09,56,22.40
2009,07,26,09,57,22.40
2009,07,26,09,58,22.50
2009,07,26,09,59,22.50
2009,07,26,10,00,22.50
2009,07,26,10,01,22.50
2009,07,26,10,02,22.50
2009,07,26,10,03,22.50
2009,07,26,10,04,22.50
2009,07,26,10,05,22.50
2009,07,26,10,06,22.50
2009,07,26,10,07,22.50
2009,07,26,10,08,22.60
2009,07,26,10,09,22.60
2009,07,26,10,10,22.60
2009,07,26,10,11,22.70
2009,07,26,10,12,22.70
2009,07,26,10,13,22.80
2009,07,26,10,14,22.80
2009,07,26,10,15,22.80
2009,07,26,10,16,22.80
2009,07,26,10,17,22.80
2009,07,26,10,18,22.80
2009,07,26,10,19,22.90
2009,07,26,10,20,22.90
2009,07,26,10,21,22.90
2009,07,26,10,22,23.00
2009,07,26,10,23,23.10
2009,07,26,10,24,23.20
2009,07,26,10,25,23.20
2009,07,26,10,26,23.20
2009,07,26,10,27,23.20
2009,07,26,10,28,23.30
2009,07,26,10,29,23.30
2009,07,26,10,30,23.30
2009,07,26,10,31,23.30
2009,07,26,10,32,23.30
2009,07,26,10,33,23.30
2009,07,26,10,34,23.30
2009,07,26,10,35,23.30
2009,07,26,10,36,23.20
2009,07,26,10,37,23.20
2009,07,26,10,38,23.20
2009,07,26,10,39,23.20
2009,07,26,10,40,23.10
2009,07,26,10,41,23.10
2009,07,26,10,42,23.10
2009,07,26,10,43,23.10
2009,07,26,10,44,23.20
2009,07,26,10,45,23.20
2009,07,26,10,46,23.20
2009,07,26,10,47,23.20
2009,07,26,10,48,23.20
2009,07,26,10,49,23.20
2009,07,26,10,50,23.20
2009,07,26,10,51,23.30
2009,07,26,10,52,23.30
2009,07,26,10,53,23.30
2009,07,26,10,54,23.30
2009,07,26,10,55,23.30
2009,07,26,10,56,23.30
2009,07,26,10,57,23.40
2009,07,26,10,58,23.40
2009,07,26,10,59,23.40
2009,07,26,11,00,23.40
2009,07,26,11,01,23.60
2009,07,26,11,02,23.70
2009,07,26,11,03,23.70
2009,07,26,11,04,23.70
2009,07,26,11,05,23.60
2009,07,26,11,06,23.60
2009,07,26,11,07,23.70
2009,07,26,11,08,23.70
2009,07,26,11,09,23.60
2009,07,26,11,10,23.60
2009,07,26,11,11,23.60
2009,07,26,11,12,23.70
2009,07,26,11,13,23.70
2009,07,26,11,14,23.70
2009,07,26,11,15,23.70
2009,07,26,11,16,23.70
2009,07,26,11,17,23.70
2009,07,26,11,18,23.80
2009,07,26,11,19,23.80
2009,07,26,11,20,23.80
2009,07,26,11,21,23.90
2009,07,26,11,22,23.90
2009,07,26,11,23,23.90
2009,07,26,11,24,24.00
2009,07,26,11,25,24.00
2009,07,26,11,26,23.90
2009,07,26,11,27,23.90
2009,07,26,11,28,23.90
2009,07,26,11,29,23.90
2009,07,26,11,30,24.00
2009,07,26,11,31,24.10
2009,07,26,11,32,23.90
2009,07,26,11,33,24.00
2009,07,26,11,34,23.90
2009,07,26,11,35,23.90
2009,07,26,11,36,23.80
2009,07,26,11,37,23.70
2009,07,26,11,38,23.70
2009,07,26,11,39,23.70
2009,07,26,11,40,23.70
2009,07,26,11,41,23.70
2009,07,26,11,42,23.80
2009,07,26,11,43,23.90
2009,07,26,11,44,23.90
2009,07,26,11,45,23.90
2009,07,26,11,46,23.90
2009,07,26,11,47,23.90
2009,07,26,11,48,23.90
2009,07,26,11,49,23.90
2009,07,26,11,50,23.90
2009,07,26,11,51,23.80
2009,07,26,11,52,23.80
2009,07,26,11,53,23.90
2009,07,26,11,54,23.90
2009,07,26,11,55,23.90
2009,07,26,11,56,24.00
2009,07,26,11,57,24.10
2009,07,26,11,58,24.10
2009,07,26,11,59,24.10
2009,07,26,12,00,24.10
2009,07,26,12,01,24.10
2009,07,26,12,02,24.10
2009,07,26,12,03,24.10
2009,07,26,12,04,24.10
2009,07,26,12,05,24.10
2009,07,26,12,06,24.10
2009,07,26,12,07,23.90
2009,07,26,12,08,23.80
2009,07,26,12,09,23.70
2009,07,26,12,10,23.60
2009,07,26,12,11,23.50
2009,07,26,12,12,23.60
2009,07,26,12,13,23.60
2009,07,26,12,14,23.70
2009,07,26,12,15,23.90
2009,07,26,12,16,24.00
2009,07,26,12,17,24.10
2009,07,26,12,18,24.20
2009,07,26,12,19,24.40
2009,07,26,12,20,24.50
2009,07,26,12,21,24.60
2009,07,26,12,22,24.70
2009,07,26,12,23,24.70
2009,07,26,12,24,24.80
2009,07,26,12,25,24.80
2009,07,26,12,26,24.80
2009,07,26,12,27,24.90
2009,07,26,12,28,24.90
2009,07,26,12,29,25.10
2009,07,26,12,30,25.20
2009,07,26,12,31,25.20
2009,07,26,12,32,25.20
2009,07,26,12,33,25.10
2009,07,26,12,34,25.10
2009,07,26,12,35,25.20
2009,07,26,12,36,25.30
2009,07,26,12,37,25.40
2009,07,26,12,38,25.50
2009,07,26,12,39,25.60
2009,07,26,12,40,25.60
2009,07,26,12,41,25.60
2009,07,26,12,42,25.70
2009,07,26,12,43,25.80
2009,07,26,12,44,25.90
2009,07,26,12,45,26.00
2009,07,26,12,46,26.00
2009,07,26,12,47,26.00
2009,07,26,12,48,26.00
2009,07,26,12,49,26.10
2009,07,26,12,50,26.20
2009,07,26,12,51,26.20
2009,07,26,12,52,26.20
2009,07,26,12,53,26.30
2009,07,26,12,54,26.30
2009,07,26,12,55,26.50
2009,07,26,12,56,26.60
2009,07,26,12,57,26.70
2009,07,26,12,58,26.70
2009,07,26,12,59,26.60
2009,07,26,13,00,26.60
2009,07,26,13,01,26.50
2009,07,26,13,02,26.40
2009,07,26,13,03,26.40
2009,07,26,13,04,26.40
2009,07,26,13,05,26.40
2009,07,26,13,06,26.40
2009,07,26,13,07,26.50
2009,07,26,13,08,26.60
2009,07,26,13,09,26.60
2009,07,26,13,10,26.70
2009,07,26,13,11,26.80
2009,07,26,13,12,27.00
2009,07,26,13,13,27.20
2009,07,26,13,14,27.40
2009,07,26,13,15,27.60
2009,07,26,13,16,27.80
2009,07,26,13,17,28.00
2009,07,26,13,18,28.30
2009,07,26,13,19,28.60
2009,07,26,13,20,28.70
2009,07,26,13,21,28.70
2009,07,26,13,22,28.50
2009,07,26,13,23,28.30
2009,07,26,13,24,28.10
2009,07,26,13,25,28.00
2009,07,26,13,26,27.90
2009,07,26,13,27,27.80
2009,07,26,13,28,27.80
2009,07,26,13,29,27.90
2009,07,26,13,30,28.10
2009,07,26,13,31,28.10
2009,07,26,13,32,28.10
2009,07,26,13,33,28.10
2009,07,26,13,34,28.00
2009,07,26,13,35,28.00
2009,07,26,13,36,27.90
2009,07,26,13,37,28.00
2009,07,26,13,38,28.10
2009,07,26,13,39,28.10
2009,07,26,13,40,28.30
2009,07,26,13,41,28.30
2009,07,26,13,42,28.30
2009,07,26,13,43,28.30
2009,07,26,13,44,28.30
2009,07,26,13,45,28.30
2009,07,26,13,46,28.40
2009,07,26,13,47,28.40
2009,07,26,13,48,28.40
2009,07,26,13,49,28.30
2009,07,26,13,50,28.20
2009,07,26,13,51,28.20
2009,07,26,13,52,28.20
2009,07,26,13,53,28.10
2009,07,26,13,54,28.10
2009,07,26,13,55,28.00
2009,07,26,13,56,27.80
2009,07,26,13,57,27.70
2009,07,26,13,58,27.60
2009,07,26,13,59,27.50
2009,07,26,14,00,27.30
2009,07,26,14,01,27.10
2009,07,26,14,02,27.10
2009,07,26,14,03,26.90
2009,07,26,14,04,26.90
2009,07,26,14,05,26.80
2009,07,26,14,06,26.80
2009,07,26,14,07,26.70
2009,07,26,14,08,26.70
2009,07,26,14,09,26.80
2009,07,26,14,10,27.00
2009,07,26,14,11,27.10
2009,07,26,14,12,27.20
2009,07,26,14,13,27.20
2009,07,26,14,14,27.10
2009,07,26,14,15,27.10
2009,07,26,14,16,27.10
2009,07,26,14,17,27.10
2009,07,26,14,18,27.10
2009,07,26,14,19,26.90
2009,07,26,14,20,26.80
2009,07,26,14,21,26.80
2009,07,26,14,22,26.70
2009,07,26,14,23,26.90
2009,07,26,14,24,27.10
2009,07,26,14,25,27.30
2009,07,26,14,26,27.40
2009,07,26,14,27,27.50
2009,07,26,14,28,27.40
2009,07,26,14,29,27.20
2009,07,26,14,30,27.10
2009,07,26,14,31,27.10
2009,07,26,14,32,27.10
2009,07,26,14,33,27.20
2009,07,26,14,34,27.10
2009,07,26,14,35,27.00
2009,07,26,14,36,26.90
2009,07,26,14,37,26.90
2009,07,26,14,38,27.00
2009,07,26,14,39,26.90
2009,07,26,14,40,26.80
2009,07,26,14,41,26.70
2009,07,26,14,42,26.60
2009,07,26,14,43,26.50
2009,07,26,14,44,26.40
2009,07,26,14,45,26.40
2009,07,26,14,46,26.50
2009,07,26,14,47,26.60
2009,07,26,14,48,26.70
2009,07,26,14,49,26.80
2009,07,26,14,50,26.80
2009,07,26,14,51,26.70
2009,07,26,14,52,26.70
2009,07,26,14,53,26.80
2009,07,26,14,54,26.80
2009,07,26,14,55,26.80
2009,07,26,14,56,26.80
2009,07,26,14,57,26.70
2009,07,26,14,58,26.70
2009,07,26,14,59,26.70
2009,07,26,15,00,26.80
2009,07,26,15,01,26.90
2009,07,26,15,02,26.90
2009,07,26,15,03,26.90
2009,07,26,15,04,26.90
2009,07,26,15,05,26.80
2009,07,26,15,06,26.70
2009,07,26,15,07,26.70
2009,07,26,15,08,26.80
2009,07,26,15,09,26.80
2009,07,26,15,10,26.80
2009,07,26,15,11,26.70
2009,07,26,15,12,26.80
2009,07,26,15,13,26.90
2009,07,26,15,14,27.00
2009,07,26,15,15,27.10
2009,07,26,15,16,27.10
2009,07,26,15,17,27.10
2009,07,26,15,18,27.10
2009,07,26,15,19,27.10
2009,07,26,15,20,27.10
2009,07,26,15,21,27.10
2009,07,26,15,22,27.10
2009,07,26,15,23,27.00
2009,07,26,15,24,26.90
2009,07,26,15,25,26.90
2009,07,26,15,26,26.90
2009,07,26,15,27,26.90
2009,07,26,15,28,26.90
2009,07,26,15,29,26.90
2009,07,26,15,30,26.90
2009,07,26,15,31,26.90
2009,07,26,15,32,26.90
2009,07,26,15,33,26.90
2009,07,26,15,34,26.90
2009,07,26,15,35,26.80
2009,07,26,15,36,26.70
2009,07,26,15,37,26.70
2009,07,26,15,38,26.70
2009,07,26,15,39,26.80
2009,07,26,15,40,26.90
2009,07,26,15,41,27.00
2009,07,26,15,42,26.90
2009,07,26,15,43,27.00
2009,07,26,15,44,27.10
2009,07,26,15,45,27.20
2009,07,26,15,46,27.30
2009,07,26,15,47,27.30
2009,07,26,15,48,27.30
2009,07,26,15,49,27.30
2009,07,26,15,50,27.10
2009,07,26,15,51,26.90
2009,07,26,15,52,26.80
2009,07,26,15,53,26.80
2009,07,26,15,54,26.90
2009,07,26,15,55,27.00
2009,07,26,15,56,27.20
2009,07,26,15,57,27.40
2009,07,26,15,58,27.60
2009,07,26,15,59,27.70
2009,07,26,16,00,27.60
2009,07,26,16,01,27.60
2009,07,26,16,02,27.60
2009,07,26,16,03,27.70
2009,07,26,16,04,27.70
2009,07,26,16,05,27.70
2009,07,26,16,06,27.80
2009,07,26,16,07,27.80
2009,07,26,16,08,27.90
2009,07,26,16,09,28.00
2009,07,26,16,10,28.10
2009,07,26,16,11,28.10
2009,07,26,16,12,28.10
2009,07,26,16,13,28.00
2009,07,26,16,14,27.80
2009,07,26,16,15,27.60
2009,07,26,16,16,27.40
2009,07,26,16,17,27.30
2009,07,26,16,18,27.20
2009,07,26,16,19,27.10
2009,07,26,16,20,27.10
2009,07,26,16,21,26.90
2009,07,26,16,22,26.90
2009,07,26,16,23,26.80
2009,07,26,16,24,26.80
2009,07,26,16,25,26.90
2009,07,26,16,26,27.00
2009,07,26,16,27,27.20
2009,07,26,16,28,27.30
2009,07,26,16,29,27.50
2009,07,26,16,30,27.60
2009,07,26,16,31,27.80
2009,07,26,16,32,27.80
2009,07,26,16,33,27.70
2009,07,26,16,34,27.80
2009,07,26,16,35,27.80
2009,07,26,16,36,27.60
2009,07,26,16,37,27.60
2009,07,26,16,38,27.60
2009,07,26,16,39,27.60
2009,07,26,16,40,27.60
2009,07,26,16,41,27.60
2009,07,26,16,42,27.50
2009,07,26,16,43,27.60
2009,07,26,16,44,27.60
2009,07,26,16,45,27.60
2009,07,26,16,46,27.60
2009,07,26,16,47,27.60
2009,07,26,16,48,27.70
2009,07,26,16,49,27.80
2009,07,26,16,50,27.80
2009,07,26,16,51,27.90
2009,07,26,16,52,27.80
2009,07,26,16,53,27.80
2009,07,26,16,54,27.80
2009,07,26,16,55,27.90
2009,07,26,16,56,28.00
2009,07,26,16,57,28.10
2009,07,26,16,58,28.20
2009,07,26,16,59,28.30
2009,07,26,17,00,28.40
2009,07,26,17,01,28.40
2009,07,26,17,02,28.40
2009,07,26,17,03,28.40
2009,07,26,17,04,28.40
2009,07,26,17,05,28.30
2009,07,26,17,06,28.10
2009,07,26,17,07,28.00
2009,07,26,17,08,28.00
2009,07,26,17,09,28.00
2009,07,26,17,10,28.00
2009,07,26,17,11,28.00
2009,07,26,17,12,28.10
2009,07,26,17,13,28.10
2009,07,26,17,14,28.10
2009,07,26,17,15,28.10
2009,07,26,17,16,28.10
2009,07,26,17,17,28.10
2009,07,26,17,18,28.10
2009,07,26,17,19,28.20